Ely, NV

2:50 PM PST on January 17, 2018 (GMT -0800)
Ely

Weather History for KELY - April, 2013

Change the Weather History Date:

Tuesday, April 16, 2013

  Actual Average Record
Temperature  
Mean Temperature 30 °F 42 °F  
Max Temperature 34 °F 58 °F 77 °F (1987)
Min Temperature 25 °F 27 °F 10 °F (1896)
Degree Days  
Heating Degree Days 35 23  
Month to date heating degree days 359 389  
Since 1 July heating degree days 6339 6616  
Cooling Degree Days 0 0  
Month to date cooling degree days 0 0  
Year to date cooling degree days 0 0  
Moisture  
Dew Point 25 °F    
Average Humidity 85    
Maximum Humidity 100    
Minimum Humidity 69    
Precipitation  
Precipitation 0.07 in 0.03 in 0.23 in (1978)
Month to date precipitation 0.79 0.50  
Year to date precipitation 2.49 2.88  
Snow  
Snow 1.30 in 0.20 in 2.60 in (1975)
Month to date snowfall 6.0 3.3  
Since 1 July snowfall 64.5 46.5  
Snow Depth 3.00 in    
Sea Level Pressure  
Sea Level Pressure 29.82 in    
Wind  
Wind Speed 13 mph (North)    
Max Wind Speed 22 mph    
Max Gust Speed 26 mph    
Visibility 5 miles    
Events Fog , Snow    
T = Trace of Precipitation, MM = Missing Value Source: NWS Daily Summary

Daily Weather History Graph

Daily Weather History Graph

Search for Another Location

Airport or City:

Trip Planner

Search our weather history database for the weather conditions in past years. The results will help you decide how hot, cold, wet, or windy it might be!

Date:

Astronomy

Apr. 16, 2013 Rise Set
Actual Time 6:00 AM PDT 7:18 PM PDT
Civil Twilight 5:32 AM PDT 7:46 PM PDT
Nautical Twilight 4:59 AM PDT 8:19 PM PDT
Astronomical Twilight 4:24 AM PDT 8:54 PM PDT
Moon 10:23 AM PDT (4/16) 12:17 AM PDT (4/16)
Length of Visible Light 14h 13m
Length of Day
13h 17m
Waxing Crescent, 34% of the Moon is Illuminated
Apr 16
Waxing Crescent
Apr 18
First Quarter
Apr 25
Full
May 2
Last Quarter
May 9
New

Hourly Weather History & Observations

Time (PDT) Temp. Windchill Dew Point Humidity Pressure Visibility Wind Dir Wind Speed Gust Speed Precip Events Conditions
12:04 AM 28.4 °F 19.1 °F 26.6 °F 93% 29.67 in 10.0 mi North 10.4 mph - N/A   Overcast
12:38 AM 28.4 °F 21.2 °F 26.6 °F 93% 29.67 in 10.0 mi North 6.9 mph - N/A   Overcast
12:53 AM 28.9 °F 20.4 °F 27.0 °F 92% 29.62 in 10.0 mi North 9.2 mph - N/A   Overcast
1:53 AM 28.0 °F 17.5 °F 27.0 °F 96% 29.62 in 10.0 mi North 12.7 mph - N/A   Overcast
2:53 AM 27.0 °F 15.2 °F 26.1 °F 96% 29.64 in 10.0 mi North 15.0 mph - N/A   Overcast
3:53 AM 27.0 °F 15.2 °F 26.1 °F 96% 29.64 in 10.0 mi North 15.0 mph - N/A   Overcast
4:40 AM 26.6 °F 14.7 °F 24.8 °F 93% 29.69 in 4.0 mi North 15.0 mph - 0.00 in Snow Light Snow
4:50 AM 26.6 °F 13.8 °F 24.8 °F 93% 29.69 in 4.0 mi North 17.3 mph - 0.00 in Snow Light Snow
4:53 AM 26.6 °F 14.3 °F 24.8 °F 93% 29.69 in 4.0 mi North 16.1 mph - N/A Snow Light Snow
5:10 AM 26.6 °F 14.3 °F 24.8 °F 93% 29.69 in 4.0 mi North 16.1 mph - 0.00 in Snow Light Snow
6:05 AM 24.8 °F 12.4 °F 23.0 °F 93% 29.72 in 9.0 mi North 15.0 mph - 0.00 in   Overcast
6:22 AM 24.8 °F 12.9 °F 23.0 °F 93% 29.72 in 5.0 mi North 13.8 mph - 0.00 in Snow Light Snow
6:53 AM 25.0 °F 10.9 °F 23.0 °F 92% 29.74 in 4.0 mi North 19.6 mph 25.3 mph 0.00 in Snow Light Snow
7:02 AM 24.8 °F 10.3 °F 23.0 °F 93% 29.74 in 4.0 mi North 20.7 mph - 0.00 in Snow Light Snow
7:22 AM 24.8 °F 11.1 °F 23.0 °F 93% 29.74 in 2.0 mi North 18.4 mph - 0.00 in Snow Light Snow
7:30 AM 24.8 °F 10.7 °F 23.0 °F 93% 29.75 in 1.5 mi North 19.6 mph 26.5 mph 0.00 in Snow Light Snow
7:43 AM 24.8 °F 11.9 °F 23.0 °F 93% 29.75 in 1.2 mi North 16.1 mph 24.2 mph 0.00 in Snow Light Snow
7:53 AM 25.0 °F 10.9 °F 23.0 °F 92% 29.78 in 1.2 mi North 19.6 mph 26.5 mph 0.00 in Snow Light Snow
8:07 AM 26.6 °F 13.4 °F 23.0 °F 86% 29.76 in 1.5 mi North 18.4 mph - 0.00 in Snow Light Snow
8:19 AM 26.6 °F 14.3 °F 24.8 °F 93% 29.76 in 1.2 mi North 16.1 mph - 0.01 in Snow Light Snow
8:32 AM 26.6 °F 13.8 °F 24.8 °F 93% 29.77 in 1.8 mi North 17.3 mph - 0.01 in Snow Light Snow
8:40 AM 26.6 °F 14.7 °F 24.8 °F 93% 29.77 in 2.5 mi North 15.0 mph - 0.01 in Snow Light Snow
8:51 AM 26.6 °F 14.7 °F 24.8 °F 93% 29.77 in 2.5 mi North 15.0 mph - 0.01 in Snow Light Snow
8:53 AM 26.1 °F 13.1 °F 24.1 °F 92% 29.80 in 2.5 mi North 17.3 mph - 0.01 in Snow Light Snow
9:02 AM 26.6 °F 14.3 °F 24.8 °F 93% 29.78 in 1.2 mi North 16.1 mph - 0.00 in Snow Light Snow
9:53 AM 27.0 °F 14.7 °F 24.1 °F 89% 29.82 in 1.0 mi North 16.1 mph - 0.00 in Snow Light Snow
10:09 AM 28.4 °F 17.0 °F 24.8 °F 86% 29.79 in 2.0 mi North 15.0 mph - 0.01 in Snow Light Snow
10:22 AM 28.4 °F 15.4 °F 24.8 °F 86% 29.80 in 3.0 mi North 19.6 mph - 0.01 in Snow Light Snow
10:30 AM 28.4 °F 15.8 °F 24.8 °F 86% 29.80 in 2.5 mi North 18.4 mph - 0.01 in Snow Light Snow
10:40 AM 28.4 °F 14.7 °F 24.8 °F 86% 29.80 in 3.0 mi North 21.9 mph - 0.01 in Snow Light Snow
10:51 AM 28.4 °F 15.4 °F 24.8 °F 86% 29.81 in 2.0 mi North 19.6 mph 25.3 mph 0.01 in Snow Light Snow
10:53 AM 28.9 °F 16.5 °F 25.0 °F 85% 29.83 in 2.5 mi North 18.4 mph 25.3 mph 0.01 in Snow Light Snow
11:00 AM 28.4 °F 15.8 °F 24.8 °F 86% 29.81 in 3.0 mi North 18.4 mph 26.5 mph 0.00 in Snow Light Snow
11:06 AM 28.4 °F 15.4 °F 24.8 °F 86% 29.81 in 2.5 mi North 19.6 mph - 0.00 in Snow Light Snow
11:16 AM 28.4 °F 15.4 °F 24.8 °F 86% 29.81 in 7.0 mi North 19.6 mph 24.2 mph 0.00 in Snow Light Snow
11:28 AM 30.2 °F 17.1 °F 24.8 °F 80% 29.81 in 9.0 mi North 21.9 mph - 0.00 in Snow Light Snow
11:36 AM 30.2 °F 18.5 °F 24.8 °F 80% 29.80 in 10.0 mi North 17.3 mph 25.3 mph 0.00 in   Scattered Clouds
11:53 AM 30.9 °F 19.4 °F 25.0 °F 79% 29.82 in 10.0 mi North 17.3 mph - 0.00 in   Partly Cloudy
12:53 PM 30.0 °F 19.5 °F 26.1 °F 85% 29.83 in 1.2 mi NNW 13.8 mph 24.2 mph 0.00 in Snow Light Snow
1:03 PM 30.2 °F 21.3 °F 26.6 °F 86% 29.82 in 2.5 mi NW 10.4 mph - 0.00 in Snow Light Snow
1:10 PM 32.0 °F 24.2 °F 26.6 °F 80% 29.83 in 9.0 mi WNW 9.2 mph - 0.00 in   Overcast
1:53 PM 34.0 °F 25.0 °F 24.1 °F 67% 29.84 in 10.0 mi North 12.7 mph - 0.00 in   Overcast
2:53 PM 34.0 °F 24.2 °F 24.1 °F 67% 29.85 in 10.0 mi North 15.0 mph - N/A   Mostly Cloudy
3:21 PM 30.2 °F 18.1 °F 26.6 °F 86% 29.85 in 1.5 mi NW 18.4 mph 24.2 mph 0.00 in Snow Light Snow
3:23 PM 28.4 °F 15.8 °F 26.6 °F 93% 29.85 in 1.0 mi WNW 18.4 mph 24.2 mph 0.00 in Snow Light Snow
3:25 PM 28.4 °F 15.4 °F 26.6 °F 93% 29.85 in 0.8 mi WNW 19.6 mph 24.2 mph 0.00 in Snow Light Snow
3:30 PM 28.4 °F 16.2 °F 26.6 °F 93% 29.86 in 0.2 mi NW 17.3 mph - 0.00 in Fog , Snow Snow
3:35 PM 26.6 °F 13.4 °F 24.8 °F 93% 29.86 in 0.2 mi NNW 18.4 mph - 0.01 in Fog , Snow Heavy Snow
3:53 PM 27.0 °F 19.5 °F 25.0 °F 92% 29.91 in 0.5 mi North 6.9 mph - 0.03 in Fog , Snow Snow
4:07 PM 28.4 °F 16.6 °F 24.8 °F 86% 29.88 in 1.0 mi NNW 16.1 mph - 0.01 in Snow Light Snow
4:10 PM 28.4 °F 18.0 °F 24.8 °F 86% 29.88 in 2.0 mi NNW 12.7 mph - 0.01 in Snow Light Snow
4:19 PM 28.4 °F 19.7 °F 24.8 °F 86% 29.88 in 1.5 mi NNW 9.2 mph - 0.02 in Snow Light Snow
4:24 PM 28.4 °F 22.2 °F 24.8 °F 86% 29.88 in 3.0 mi NNW 5.8 mph - 0.02 in Snow Light Snow
4:33 PM 28.4 °F 22.2 °F 24.8 °F 86% 29.88 in 9.0 mi North 5.8 mph - 0.02 in   Overcast
4:53 PM 30.0 °F 25.2 °F 24.1 °F 79% 29.91 in 10.0 mi North 4.6 mph - 0.02 in   Overcast
5:53 PM 33.1 °F 25.5 °F 24.1 °F 70% 29.91 in 10.0 mi North 9.2 mph - N/A   Overcast
6:53 PM 30.0 °F 20.0 °F 25.0 °F 82% 29.94 in 10.0 mi North 12.7 mph - N/A   Overcast
7:53 PM 28.9 °F 17.7 °F 24.1 °F 82% 29.96 in 10.0 mi North 15.0 mph - N/A   Overcast
8:44 PM 28.4 °F 17.5 °F 24.8 °F 86% 29.94 in 10.0 mi North 13.8 mph - 0.00 in   Overcast
8:53 PM 27.0 °F 16.7 °F 24.1 °F 89% 29.99 in 10.0 mi North 11.5 mph - 0.00 in   Mostly Cloudy
9:05 PM 26.6 °F 15.7 °F 23.0 °F 86% 29.95 in 10.0 mi North 12.7 mph - N/A   Scattered Clouds
9:18 PM 28.4 °F 21.2 °F 21.2 °F 74% 29.95 in 10.0 mi NNW 6.9 mph - N/A   Mostly Cloudy
9:53 PM 27.0 °F 18.7 °F 24.1 °F 89% 30.00 in 10.0 mi NNW 8.1 mph - 0.00 in   Overcast
10:02 PM 26.6 °F 16.2 °F 24.8 °F 93% 29.96 in 10.0 mi North 11.5 mph - N/A   Mostly Cloudy
10:21 PM 26.6 °F 18.2 °F 24.8 °F 93% 29.96 in 5.0 mi North 8.1 mph - 0.00 in Snow Light Snow
10:45 PM 26.6 °F 16.2 °F 24.8 °F 93% 29.96 in 2.5 mi NNW 11.5 mph - 0.00 in Snow Light Snow
10:53 PM 27.0 °F 17.3 °F 25.0 °F 92% 29.99 in 3.0 mi NNW 10.4 mph - 0.00 in Snow Light Snow
11:00 PM 26.6 °F 16.2 °F 24.8 °F 93% 29.96 in 6.0 mi North 11.5 mph - 0.00 in Snow Light Snow
11:14 PM 26.6 °F 16.2 °F 24.8 °F 93% 29.96 in 9.0 mi North 11.5 mph - 0.00 in   Overcast
11:53 PM 26.1 °F 18.4 °F 24.1 °F 92% 29.99 in 10.0 mi NNW 6.9 mph - 0.00 in Snow Light Snow